Location: Clanezzo
(45.7500°N, 9.6000°E)
Time: 04:21:42
(UTC+00:00)

Cosmos 1862 Rocket - Pass Details

Date: 12 May 2021
Orbit: 604 x 633 km, 82.5° (Epoch: 18 June)

Event Time Altitude Azimuth Distance (km) Brightness Sun altitude
Exits shadow 22:27:31 62° 280° (W) 686 3.7 -24.9°
Maximum altitude 22:27:32 62° 281° (W) 686 3.8 -24.9°
Drops below altitude 10° 22:31:50 10° 2° (N) 1,963 7.1 -25.0°
Sets 22:34:05 0° 6° (N) 2,872 8.2 -25.1°
